Miscellaneous Local Product
Issued by NWS Hastings, NE

Home | Current Version | Previous Version | Text Only | Print | Product List | Glossary Off
Versions: 1 2 3 4 5 6 7 8 9 10 11 12 13 14 15 16 17 18 19 20 21 22 23 24 25 26 27 28 29 30 31 32 33 34 35 36 37 38 39 40 41 42 43 44 45 46 47 48 49 50

502
AXUS43 KGID 282302
MISGRI

GID CWA HOURLY WEATHER ROUNDUP
NATIONAL WEATHER SERVICE HASTINGS NE
600 PM CDT SAT MAY 28 2016

NOTE: "FAIR" INDICATES FEW OR NO CLOUDS BELOW 12,000 FEET WITH NO
SIGNIFICANT WEATHER AND/OR OBSTRUCTIONS TO VISIBILITY.

...SOUTH CENTRAL NEBRASKA...

CITY           SKY/WX    TMP DP  RH WIND       PRES   REMARKS
GRAND ISLAND   SUNNY     75  51  43 W14       29.89S
HASTINGS       MOSUNNY   75  53  46 NW14      29.90S
KEARNEY        MOSUNNY   75  50  41 NW12      29.92S
ORD            MOSUNNY   74  51  44 NW12      29.88R
YORK           SUNNY     73  55  53 NW16      29.88S
AURORA         MOSUNNY   74  54  50 NW10      29.89S
LEXINGTON      MOSUNNY   73  54  51 W7        29.92R
HOLDREGE       MOSUNNY   75  51  43 W10       29.92S
HEBRON         MOSUNNY   73  54  50 NW6       29.89S

...NEBRASKA PANHANDLE...

CITY           SKY/WX    TMP DP  RH WIND       PRES   REMARKS
CHADRON        LGT RAIN  57  50  77 NW15G30   29.98R
ALLIANCE       CLOUDY    64  48  56 N10       29.96R THUNDER
SCOTTSBLUFF    PTSUNNY   77  43  29 NW13G20   29.94R
SIDNEY         CLOUDY    66  52  60 SW12      29.98S

...WESTERN AND NORTH CENTRAL NEBRASKA...

CITY           SKY/WX    TMP DP  RH WIND       PRES   REMARKS
VALENTINE      MOSUNNY   74  48  39 N8        29.90S
AINSWORTH      MOSUNNY   71  50  46 NW10      29.91R
ONEILL         CLOUDY    65  60  82 N8        29.90R
BROKEN BOW     MOSUNNY   75  51  43 N9        29.90S
IMPERIAL       SUNNY     75  46  35 W7        29.95S
NORTH PLATTE   SUNNY     75  50  41 W5        29.92S
MCCOOK         MOSUNNY   76  49  38 W12       29.94R

...EASTERN NEBRASKA...

CITY           SKY/WX    TMP DP  RH WIND       PRES   REMARKS
NORFOLK        MOSUNNY   65  55  70 NW15G25   29.86R
SO SIOUX CITY  CLOUDY    66  59  78 NW17      29.79R
TEKAMAH        PTSUNNY   73  55  53 W22G31    29.81R
COLUMBUS       MOSUNNY   72  54  53 NW16G23   29.88R
ALBION         MOSUNNY   70  55  58 NW15      29.89R
OMAHA EPPLEY   PTSUNNY   74  56  53 W16G24    29.82R
OFFUTT AFB     MOSUNNY   74  55  51 W15G26    29.83R
MILLARD        MOSUNNY   74  55  50 W16G22    29.83S
LINCOLN        SUNNY     76  55  48 W14       29.87R
NEBRASKA CITY  SUNNY     74  56  53 W15       29.86S
BEATRICE       MOSUNNY   75  57  53 W14       29.88S
FALLS CITY     PTSUNNY   74  57  55 W15       29.87R

...NORTHERN KANSAS...

CITY           SKY/WX    TMP DP  RH WIND       PRES   REMARKS
GOODLAND       SUNNY     75  43  31 W7        29.98S
HILL CITY      MOSUNNY   79  48  33 CALM      29.94S
NORTON         PTCLDY    75  39  27 NW8       29.93S
PHILLIPSBURG   MOSUNNY   75  48  38 W8        29.92S
SMITH CENTER   MOSUNNY   73  57  56 W9        29.92S
BELOIT         SUNNY     63  43  48 W3        29.91S
HAYS           SUNNY     75  52  43 NW6       29.95S
RUSSELL        SUNNY     76  53  44 W9        29.94R
CONCORDIA      MOSUNNY   76  54  46 SW10      29.91S
SALINA         MOSUNNY   78  56  46 W8        29.94R
TOPEKA         PTSUNNY   77  58  51 SW6       29.91S



USA.gov is the U.S. government's official web portal to all federal, state and local government web resources and services.